GEC8HR EDDF-LTFM

Flight info

Callsign GEC8HR
Flight time 2h 24m
Altitude 31000
Route CINDY8S CINDY Z74 HAREM DCT ASLEP DCT TAKUT DCT DINKU L603 BESNI/N0484F350 L605 MIQ DCT ALUTU DCT BIBAG L605 ESEGA DCT VELOM DCT GOTAR DCT BABIT DCT ESIRI DCT ETIDA T390 RILEX
Aircraft B77L/H-SDE1E2E3FGHIJ2J3J4J5M1RWXY/LB1D1

Departure

Time 2026-05-07 12:30
Airport Frankfurt Main Airport (EDDF)

Arrival

Time 2026-05-07 14:55
Airport İstanbul Airport (LTFM)
Time Latitude Longitude Altitude Speed Heading
2026-05-07 11:58 50.03965 8.54381 362 ft 0 kts 70°
2026-05-07 11:59 50.03964 8.54381 362 ft 0 kts 70°
2026-05-07 12:02 50.03964 8.54380 361 ft 0 kts 69°
2026-05-07 12:06 50.03964 8.54379 361 ft 0 kts 69°
2026-05-07 12:08 50.03964 8.54380 361 ft 0 kts 69°
2026-05-07 12:15 50.03959 8.54359 369 ft 4 kts 71°
2026-05-07 12:15 50.03954 8.54338 363 ft 0 kts 72°
2026-05-07 12:17 50.03951 8.54321 366 ft 4 kts 75°
2026-05-07 12:17 50.03954 8.54260 368 ft 8 kts 132°
2026-05-07 12:17 50.03962 8.54247 368 ft 0 kts 141°
2026-05-07 12:17 50.03967 8.54242 365 ft 3 kts 149°
2026-05-07 12:18 50.03973 8.54236 368 ft 0 kts 158°
2026-05-07 12:21 50.03969 8.54239 368 ft 3 kts 158°
2026-05-07 12:21 50.03906 8.54278 370 ft 15 kts 158°
2026-05-07 12:22 50.03813 8.54264 371 ft 15 kts 239°
2026-05-07 12:22 50.03774 8.54112 371 ft 16 kts 249°
2026-05-07 12:22 50.03726 8.53916 371 ft 24 kts 250°
2026-05-07 12:22 50.03658 8.53628 366 ft 30 kts 249°
2026-05-07 12:23 50.03583 8.53326 372 ft 30 kts 249°
2026-05-07 12:23 50.03510 8.53023 375 ft 30 kts 249°
2026-05-07 12:23 50.03478 8.52895 376 ft 3 kts 248°
2026-05-07 12:23 50.03472 8.52869 380 ft 3 kts 248°
2026-05-07 12:24 50.03461 8.52827 380 ft 9 kts 248°
2026-05-07 12:24 50.03444 8.52762 383 ft 0 kts 248°
2026-05-07 12:26 50.03443 8.52761 383 ft 0 kts 248°
2026-05-07 12:27 50.03443 8.52760 383 ft 1 kts 248°
2026-05-07 12:28 50.03425 8.52693 384 ft 9 kts 247°
2026-05-07 12:28 50.03389 8.52613 382 ft 10 kts 214°
2026-05-07 12:28 50.03341 8.52598 381 ft 1 kts 180°
2026-05-07 12:28 50.03340 8.52598 380 ft 0 kts 180°
2026-05-07 12:30 50.03182 8.52597 375 ft 66 kts 180°
2026-05-07 12:30 50.02385 8.52604 373 ft 160 kts 180°
2026-05-07 12:30 50.01069 8.52610 734 ft 198 kts 182°
2026-05-07 12:30 49.99670 8.52608 1680 ft 207 kts 181°
2026-05-07 12:31 49.98225 8.52613 2502 ft 210 kts 178°
2026-05-07 12:31 49.96806 8.53247 2963 ft 222 kts 144°
2026-05-07 12:31 49.95704 8.55024 2974 ft 230 kts 117°
2026-05-07 12:31 49.94981 8.57178 3077 ft 231 kts 118°
2026-05-07 12:32 49.94219 8.59411 3660 ft 236 kts 110°
2026-05-07 12:32 49.93936 8.61839 4115 ft 251 kts 90°
2026-05-07 12:33 49.91505 8.72136 6821 ft 280 kts 147°
2026-05-07 12:33 49.89919 8.73818 7531 ft 286 kts 145°
2026-05-07 12:33 49.88356 8.75725 8273 ft 287 kts 131°
2026-05-07 12:34 49.87331 8.78293 8850 ft 291 kts 116°
2026-05-07 12:34 49.86406 8.81072 9573 ft 297 kts 118°
2026-05-07 12:34 49.85407 8.83885 10341 ft 301 kts 119°
2026-05-07 12:34 49.84355 8.86791 10722 ft 321 kts 119°
2026-05-07 12:35 49.83218 8.89919 10925 ft 346 kts 119°
2026-05-07 12:35 49.82012 8.93234 11125 ft 371 kts 119°
2026-05-07 12:35 49.80723 8.96777 11706 ft 383 kts 119°
2026-05-07 12:35 49.79405 9.00401 12443 ft 390 kts 119°
2026-05-07 12:36 49.78626 9.02538 12921 ft 393 kts 119°
2026-05-07 12:36 49.77276 9.06236 13817 ft 396 kts 119°
2026-05-07 12:36 49.75987 9.10005 14486 ft 398 kts 112°
2026-05-07 12:36 49.75146 9.14134 14981 ft 403 kts 106°
2026-05-07 12:37 49.74167 9.18236 15583 ft 410 kts 114°
2026-05-07 12:37 49.72959 9.22253 16376 ft 413 kts 116°
2026-05-07 12:37 49.71674 9.26239 17153 ft 416 kts 117°
2026-05-07 12:37 49.70369 9.30184 17863 ft 421 kts 117°
2026-05-07 12:38 49.69025 9.34231 18507 ft 426 kts 117°
2026-05-07 12:38 49.67671 9.38319 19123 ft 430 kts 117°
2026-05-07 12:38 49.66841 9.40831 19511 ft 432 kts 117°
2026-05-07 12:39 49.65983 9.43469 19938 ft 433 kts 116°
2026-05-07 12:39 49.64659 9.47660 20599 ft 436 kts 116°
2026-05-07 12:39 49.63282 9.51863 21151 ft 441 kts 117°
2026-05-07 12:39 49.61865 9.56081 21729 ft 445 kts 117°
2026-05-07 12:40 49.60437 9.60325 22309 ft 449 kts 117°
2026-05-07 12:40 49.59016 9.64576 22929 ft 452 kts 117°
2026-05-07 12:40 49.57576 9.68909 23525 ft 456 kts 117°
2026-05-07 12:40 49.56129 9.73273 24027 ft 459 kts 117°
2026-05-07 12:41 49.54669 9.77679 24394 ft 466 kts 117°
2026-05-07 12:41 49.53186 9.82140 24797 ft 471 kts 117°
2026-05-07 12:41 49.51679 9.86620 25335 ft 472 kts 118°
2026-05-07 12:41 49.50140 9.91093 25853 ft 475 kts 118°
2026-05-07 12:42 49.48578 9.95584 26292 ft 479 kts 118°
2026-05-07 12:42 49.47015 10.00060 26731 ft 482 kts 118°
2026-05-07 12:42 49.45405 10.04667 27206 ft 485 kts 118°
2026-05-07 12:42 49.43824 10.09193 27662 ft 488 kts 118°
2026-05-07 12:43 49.42216 10.13795 28123 ft 491 kts 118°
2026-05-07 12:43 49.40597 10.18425 28558 ft 493 kts 118°
2026-05-07 12:43 49.39640 10.21163 28801 ft 495 kts 118°
2026-05-07 12:44 49.38957 10.23114 28968 ft 496 kts 118°
2026-05-07 12:44 49.37318 10.27793 29361 ft 499 kts 118°
2026-05-07 12:44 49.35667 10.32496 29764 ft 501 kts 118°
2026-05-07 12:45 49.34011 10.37206 30161 ft 503 kts 118°
2026-05-07 12:45 49.32372 10.41857 30587 ft 502 kts 118°
2026-05-07 12:45 49.30715 10.46550 31032 ft 500 kts 118°
2026-05-07 12:45 49.29060 10.51229 31443 ft 499 kts 118°
2026-05-07 12:46 49.27402 10.55909 31817 ft 499 kts 119°
2026-05-07 12:46 49.25746 10.60575 32218 ft 498 kts 119°
2026-05-07 12:46 49.24090 10.65231 32623 ft 498 kts 119°
2026-05-07 12:46 49.22432 10.69886 33019 ft 498 kts 120°
2026-05-07 12:47 49.19116 10.79166 33093 ft 503 kts 120°
2026-05-07 12:47 49.15715 10.88650 33082 ft 513 kts 120°
2026-05-07 12:48 49.12267 10.98230 33037 ft 522 kts 120°
2026-05-07 12:48 49.11254 11.01041 33018 ft 522 kts 120°
2026-05-07 12:49 49.10370 11.03489 33026 ft 522 kts 120°
2026-05-07 12:49 49.06889 11.13112 33023 ft 521 kts 120°
2026-05-07 12:50 49.03389 11.22750 33018 ft 519 kts 120°
2026-05-07 12:50 48.99893 11.32339 33017 ft 518 kts 120°
2026-05-07 12:51 48.96388 11.41917 33023 ft 517 kts 120°
2026-05-07 12:51 48.92882 11.51466 33027 ft 517 kts 121°
2026-05-07 12:52 48.89392 11.60934 33008 ft 517 kts 121°
2026-05-07 12:52 48.85867 11.70462 33011 ft 517 kts 121°
2026-05-07 12:53 48.82336 11.79971 33022 ft 518 kts 121°
2026-05-07 12:53 48.81337 11.82656 33006 ft 518 kts 121°
2026-05-07 12:54 48.80543 11.84786 33008 ft 518 kts 121°
2026-05-07 12:54 48.76997 11.94289 33012 ft 518 kts 122°
2026-05-07 12:55 48.73457 12.03735 33021 ft 519 kts 122°
2026-05-07 12:55 48.69884 12.13239 33011 ft 520 kts 122°
2026-05-07 12:56 48.66301 12.22734 33016 ft 520 kts 122°
2026-05-07 12:56 48.62713 12.32212 33003 ft 519 kts 123°
2026-05-07 12:57 48.59114 12.41681 33006 ft 519 kts 123°
2026-05-07 12:57 48.55546 12.51034 33003 ft 519 kts 123°
2026-05-07 12:58 48.51938 12.60461 33005 ft 519 kts 123°
2026-05-07 12:58 48.50944 12.63050 33005 ft 519 kts 123°
2026-05-07 12:59 48.50017 12.65464 33002 ft 519 kts 123°
2026-05-07 12:59 48.46396 12.74875 33005 ft 519 kts 123°
2026-05-07 13:00 48.42797 12.84194 33006 ft 519 kts 123°
2026-05-07 13:00 48.39160 12.93581 33008 ft 519 kts 123°
2026-05-07 13:01 48.35517 13.02949 32999 ft 518 kts 124°
2026-05-07 13:01 48.31899 13.12227 32992 ft 518 kts 124°
2026-05-07 13:02 48.28243 13.21528 33006 ft 517 kts 124°
2026-05-07 13:02 48.24538 13.30696 33002 ft 517 kts 125°
2026-05-07 13:03 48.20789 13.39886 32985 ft 516 kts 126°
2026-05-07 13:03 48.18659 13.45010 33042 ft 513 kts 129°
2026-05-07 13:04 48.16319 13.48974 32755 ft 505 kts 147°
2026-05-07 13:04 48.13170 13.51176 30473 ft 506 kts 178°
2026-05-07 13:04 48.09792 13.51820 30554 ft 460 kts 172°
2026-05-07 13:04 48.06807 13.53228 30909 ft 455 kts 156°
2026-05-07 13:05 48.04282 13.56143 31220 ft 468 kts 136°
2026-05-07 13:05 48.02491 13.60214 31256 ft 486 kts 118°
2026-05-07 13:05 48.01456 13.65087 31123 ft 498 kts 107°
2026-05-07 13:05 48.00815 13.70212 31153 ft 505 kts 104°
2026-05-07 13:06 47.98828 13.80154 31237 ft 508 kts 119°
2026-05-07 13:06 47.95556 13.89503 31223 ft 510 kts 126°
2026-05-07 13:07 47.91855 13.98529 31216 ft 510 kts 127°
2026-05-07 13:07 47.88156 14.07559 31202 ft 511 kts 126°
2026-05-07 13:08 47.84551 14.16571 31223 ft 510 kts 127°
2026-05-07 13:08 47.83610 14.18944 31212 ft 510 kts 126°
2026-05-07 13:09 47.80575 14.26471 31540 ft 508 kts 127°
2026-05-07 13:09 47.78761 14.30983 31769 ft 510 kts 127°
2026-05-07 13:09 47.76973 14.35512 32129 ft 509 kts 126°
2026-05-07 13:10 47.75178 14.40070 32339 ft 510 kts 126°
2026-05-07 13:10 47.73400 14.44568 32514 ft 511 kts 127°
2026-05-07 13:10 47.71597 14.49104 32821 ft 509 kts 127°
2026-05-07 13:10 47.69791 14.53626 33124 ft 509 kts 127°
2026-05-07 13:11 47.67982 14.58128 33392 ft 509 kts 127°
2026-05-07 13:11 47.66163 14.62638 33611 ft 509 kts 127°
2026-05-07 13:11 47.64343 14.67146 33770 ft 510 kts 127°
2026-05-07 13:11 47.62521 14.71651 33912 ft 510 kts 127°
2026-05-07 13:12 47.58865 14.80665 33915 ft 510 kts 127°
2026-05-07 13:12 47.55234 14.89616 33936 ft 504 kts 127°
2026-05-07 13:13 47.51627 14.98469 33943 ft 501 kts 127°
2026-05-07 13:13 47.50737 15.00646 33971 ft 501 kts 127°
2026-05-07 13:14 47.49658 15.03284 33937 ft 500 kts 127°
2026-05-07 13:14 47.46065 15.12050 33969 ft 498 kts 128°
2026-05-07 13:15 47.42451 15.20826 33937 ft 503 kts 128°
2026-05-07 13:15 47.38788 15.29693 33935 ft 509 kts 127°
2026-05-07 13:16 47.35115 15.38573 33937 ft 512 kts 127°
2026-05-07 13:16 47.31408 15.47515 33932 ft 507 kts 128°
2026-05-07 13:17 47.27754 15.56303 33936 ft 500 kts 128°
2026-05-07 13:17 47.24117 15.64993 33944 ft 499 kts 128°
2026-05-07 13:18 47.20470 15.73696 33943 ft 500 kts 128°
2026-05-07 13:18 47.19598 15.75772 33949 ft 500 kts 128°
2026-05-07 13:19 47.18437 15.78533 33940 ft 500 kts 128°
2026-05-07 13:19 47.14769 15.87236 33911 ft 500 kts 129°
2026-05-07 13:20 47.11092 15.95900 33944 ft 500 kts 129°
2026-05-07 13:20 47.07414 16.04574 33952 ft 502 kts 129°
2026-05-07 13:21 47.03746 16.13224 33954 ft 503 kts 129°
2026-05-07 13:21 47.00047 16.21926 33959 ft 504 kts 128°
2026-05-07 13:22 46.96571 16.30892 33969 ft 507 kts 126°
2026-05-07 13:22 46.93192 16.39954 33964 ft 507 kts 125°
2026-05-07 13:23 46.89824 16.48947 33961 ft 507 kts 126°
2026-05-07 13:23 46.89012 16.51100 33958 ft 507 kts 126°
2026-05-07 13:24 46.88438 16.52620 33965 ft 507 kts 126°
2026-05-07 13:24 46.85022 16.61622 33968 ft 506 kts 126°
2026-05-07 13:25 46.81625 16.70531 33968 ft 505 kts 126°
2026-05-07 13:25 46.78205 16.79474 33971 ft 505 kts 127°
2026-05-07 13:26 46.74780 16.88401 33983 ft 504 kts 127°
2026-05-07 13:26 46.71349 16.97314 33990 ft 504 kts 126°
2026-05-07 13:27 46.67911 17.06218 33988 ft 504 kts 126°
2026-05-07 13:27 46.64491 17.15051 33998 ft 504 kts 126°
2026-05-07 13:28 46.61033 17.23943 33954 ft 505 kts 126°
2026-05-07 13:28 46.60235 17.25993 33966 ft 505 kts 126°
2026-05-07 13:29 46.58957 17.29273 34006 ft 504 kts 126°
2026-05-07 13:29 46.55513 17.38087 33990 ft 505 kts 126°
2026-05-07 13:30 46.52039 17.46952 34001 ft 505 kts 126°
2026-05-07 13:30 46.48631 17.55622 34011 ft 505 kts 126°
2026-05-07 13:31 46.45213 17.64286 33997 ft 505 kts 126°
2026-05-07 13:31 46.41742 17.73057 34004 ft 505 kts 126°
2026-05-07 13:32 46.38233 17.81805 34013 ft 504 kts 129°
2026-05-07 13:32 46.34067 17.89830 34018 ft 497 kts 135°
2026-05-07 13:33 46.29764 17.97608 34003 ft 499 kts 135°
2026-05-07 13:33 46.28793 17.99367 34009 ft 499 kts 135°
2026-05-07 13:34 46.25209 18.05895 33647 ft 505 kts 131°
2026-05-07 13:35 46.20856 18.13876 33724 ft 513 kts 131°
2026-05-07 13:35 46.16378 18.22072 33718 ft 527 kts 129°
2026-05-07 13:36 46.11778 18.30463 33793 ft 539 kts 129°
2026-05-07 13:36 46.07075 18.39017 33746 ft 551 kts 129°
2026-05-07 13:37 46.02253 18.47761 33779 ft 563 kts 129°
2026-05-07 13:37 45.97362 18.56600 33758 ft 574 kts 129°
2026-05-07 13:38 45.92498 18.65795 33755 ft 582 kts 122°
2026-05-07 13:38 45.89478 18.72922 33761 ft 587 kts 120°
2026-05-07 13:39 45.85870 18.81641 33744 ft 589 kts 121°
2026-05-07 13:40 45.81658 18.91697 33745 ft 587 kts 122°
2026-05-07 13:40 45.77405 19.01683 33748 ft 587 kts 122°
2026-05-07 13:41 45.73136 19.11626 33748 ft 586 kts 122°
2026-05-07 13:41 45.68867 19.21565 33747 ft 586 kts 122°
2026-05-07 13:42 45.64632 19.31522 33747 ft 586 kts 122°
2026-05-07 13:42 45.60399 19.41385 33745 ft 586 kts 122°
2026-05-07 13:43 45.56114 19.51254 33748 ft 586 kts 123°
2026-05-07 13:43 45.53056 19.58258 33748 ft 587 kts 123°
2026-05-07 13:44 45.48805 19.67968 33748 ft 587 kts 123°
2026-05-07 13:45 45.44508 19.77759 33745 ft 587 kts 123°
2026-05-07 13:45 45.40174 19.87606 33747 ft 587 kts 123°
2026-05-07 13:46 45.35827 19.97448 33750 ft 587 kts 123°
2026-05-07 13:46 45.31477 20.07261 33747 ft 587 kts 123°
2026-05-07 13:47 45.27192 20.16893 33746 ft 587 kts 123°
2026-05-07 13:47 45.22822 20.26682 33744 ft 587 kts 123°
2026-05-07 13:48 45.18442 20.36462 33747 ft 587 kts 123°
2026-05-07 13:48 45.15361 20.43320 33747 ft 587 kts 123°
2026-05-07 13:49 45.12225 20.50284 33748 ft 587 kts 123°
2026-05-07 13:50 45.07828 20.60020 33744 ft 587 kts 123°
2026-05-07 13:50 45.03420 20.69746 33749 ft 587 kts 124°
2026-05-07 13:51 44.99010 20.79445 33752 ft 587 kts 124°
2026-05-07 13:51 44.94618 20.89070 33748 ft 587 kts 124°
2026-05-07 13:52 44.90184 20.98755 33746 ft 587 kts 124°
2026-05-07 13:52 44.85740 21.08428 33745 ft 587 kts 124°
2026-05-07 13:53 44.81294 21.18073 33743 ft 587 kts 124°
2026-05-07 13:53 44.78200 21.24768 33749 ft 587 kts 124°
2026-05-07 13:54 44.74911 21.31867 33755 ft 587 kts 124°
2026-05-07 13:55 44.70440 21.41487 33744 ft 587 kts 124°
2026-05-07 13:55 44.65961 21.51094 33746 ft 588 kts 124°
2026-05-07 13:56 44.61504 21.60621 33748 ft 588 kts 124°
2026-05-07 13:56 44.57004 21.70206 33750 ft 589 kts 124°
2026-05-07 13:57 44.52493 21.79787 33754 ft 588 kts 124°
2026-05-07 13:57 44.48747 21.87734 33742 ft 588 kts 124°
2026-05-07 13:58 44.44227 21.97281 33748 ft 589 kts 125°
2026-05-07 13:58 44.40326 22.05455 33747 ft 590 kts 125°
2026-05-07 13:59 44.38674 22.08914 33743 ft 591 kts 125°
2026-05-07 14:00 44.34111 22.18472 33754 ft 591 kts 125°
2026-05-07 14:00 44.29584 22.27939 33741 ft 590 kts 125°
2026-05-07 14:01 44.25023 22.37443 33743 ft 589 kts 125°
2026-05-07 14:01 44.20456 22.46918 33746 ft 588 kts 125°
2026-05-07 14:02 44.15889 22.56361 33744 ft 587 kts 125°
2026-05-07 14:02 44.11322 22.65770 33756 ft 586 kts 125°
2026-05-07 14:03 44.06779 22.75104 33745 ft 586 kts 125°
2026-05-07 14:03 44.02893 22.83065 33754 ft 586 kts 126°
2026-05-07 14:04 43.99538 22.89921 33750 ft 585 kts 126°
2026-05-07 14:05 43.94951 22.99266 33743 ft 585 kts 126°
2026-05-07 14:05 43.90389 23.08532 33751 ft 585 kts 126°
2026-05-07 14:06 43.85791 23.17842 33750 ft 586 kts 126°
2026-05-07 14:06 43.81183 23.27141 33753 ft 586 kts 126°
2026-05-07 14:07 43.76561 23.36439 33747 ft 586 kts 126°
2026-05-07 14:07 43.71936 23.45715 33748 ft 586 kts 126°
2026-05-07 14:08 43.67329 23.54924 33743 ft 587 kts 126°
2026-05-07 14:08 43.63421 23.62714 33746 ft 587 kts 126°
2026-05-07 14:09 43.62298 23.64949 33754 ft 587 kts 126°
2026-05-07 14:10 43.57666 23.74147 33751 ft 587 kts 126°
2026-05-07 14:10 43.53050 23.83287 33746 ft 587 kts 126°
2026-05-07 14:11 43.48377 23.92510 33748 ft 587 kts 126°
2026-05-07 14:11 43.43731 24.01651 33745 ft 587 kts 126°
2026-05-07 14:12 43.39047 24.10839 33750 ft 587 kts 127°
2026-05-07 14:12 43.34352 24.20018 33756 ft 586 kts 127°
2026-05-07 14:13 43.29697 24.29092 33743 ft 587 kts 127°
2026-05-07 14:13 43.25777 24.36711 33746 ft 587 kts 127°
2026-05-07 14:14 43.22734 24.42612 33748 ft 587 kts 127°
2026-05-07 14:15 43.18043 24.51688 33745 ft 587 kts 127°
2026-05-07 14:15 43.13315 24.60806 33746 ft 588 kts 127°
2026-05-07 14:16 43.08572 24.69924 33749 ft 588 kts 127°
2026-05-07 14:16 43.03818 24.79036 33745 ft 588 kts 127°
2026-05-07 14:17 42.99057 24.88135 33750 ft 589 kts 127°
2026-05-07 14:17 42.94292 24.97211 33746 ft 589 kts 127°
2026-05-07 14:18 42.89514 25.06286 33745 ft 589 kts 127°
2026-05-07 14:18 42.85587 25.13725 33741 ft 589 kts 127°
2026-05-07 14:19 42.81209 25.21974 33782 ft 589 kts 127°
2026-05-07 14:19 42.76531 25.31104 33807 ft 590 kts 127°
2026-05-07 14:20 42.71674 25.40119 33756 ft 592 kts 128°
2026-05-07 14:20 42.66802 25.49066 33751 ft 593 kts 128°
2026-05-07 14:21 42.61927 25.58110 33748 ft 593 kts 128°
2026-05-07 14:21 42.57080 25.67140 33748 ft 591 kts 128°
2026-05-07 14:22 42.52272 25.76084 33744 ft 590 kts 128°
2026-05-07 14:22 42.47426 25.85053 33748 ft 588 kts 128°
2026-05-07 14:23 42.42590 25.93968 33747 ft 587 kts 128°
2026-05-07 14:23 42.38662 26.01192 33748 ft 585 kts 128°
2026-05-07 14:24 42.34712 26.08430 33732 ft 585 kts 128°
2026-05-07 14:24 42.29858 26.17262 33726 ft 584 kts 128°
2026-05-07 14:25 42.25053 26.26064 33427 ft 581 kts 128°
2026-05-07 14:25 42.23462 26.28975 33114 ft 582 kts 128°
2026-05-07 14:25 42.20232 26.34860 32498 ft 585 kts 128°
2026-05-07 14:25 42.17865 26.39160 32191 ft 583 kts 128°
2026-05-07 14:26 42.15457 26.43525 32005 ft 579 kts 128°
2026-05-07 14:26 42.13060 26.47865 31812 ft 575 kts 128°
2026-05-07 14:26 42.10675 26.52176 31552 ft 573 kts 128°
2026-05-07 14:26 42.08295 26.56469 31270 ft 571 kts 128°
2026-05-07 14:27 42.05921 26.60747 30972 ft 570 kts 128°
2026-05-07 14:27 42.03548 26.65019 30700 ft 569 kts 128°
2026-05-07 14:27 42.01182 26.69275 30452 ft 567 kts 128°
2026-05-07 14:27 41.98823 26.73509 30210 ft 565 kts 128°
2026-05-07 14:28 41.96522 26.77670 29967 ft 558 kts 127°
2026-05-07 14:28 41.94426 26.82011 29430 ft 550 kts 121°
2026-05-07 14:28 41.93237 26.84791 28989 ft 548 kts 120°
2026-05-07 14:28 41.91873 26.87830 28401 ft 546 kts 125°
2026-05-07 14:29 41.89397 26.91643 27039 ft 545 kts 144°
2026-05-07 14:29 41.86039 26.93972 24034 ft 548 kts 175°
2026-05-07 14:29 41.82223 26.93907 22458 ft 540 kts 181°
2026-05-07 14:29 41.78634 26.94707 22329 ft 514 kts 164°
2026-05-07 14:30 41.75524 26.96843 22076 ft 494 kts 143°
2026-05-07 14:30 41.72967 26.99773 21625 ft 476 kts 140°
2026-05-07 14:30 41.70492 27.02562 20822 ft 469 kts 140°
2026-05-07 14:30 41.68133 27.05519 20223 ft 456 kts 131°
2026-05-07 14:31 41.66115 27.08688 20398 ft 447 kts 126°
2026-05-07 14:31 41.64335 27.12118 20460 ft 452 kts 122°
2026-05-07 14:31 41.62558 27.15617 20520 ft 458 kts 122°
2026-05-07 14:31 41.60745 27.19152 20532 ft 463 kts 123°
2026-05-07 14:32 41.58924 27.22680 20521 ft 459 kts 123°
2026-05-07 14:32 41.57119 27.26158 20351 ft 452 kts 123°
2026-05-07 14:32 41.55367 27.29524 19595 ft 443 kts 123°
2026-05-07 14:32 41.53629 27.32858 18624 ft 434 kts 122°
2026-05-07 14:33 41.51929 27.36116 17807 ft 420 kts 122°
2026-05-07 14:33 41.50339 27.39164 17054 ft 400 kts 125°
2026-05-07 14:33 41.49395 27.40974 16773 ft 384 kts 125°
2026-05-07 14:33 41.48360 27.43026 16218 ft 374 kts 123°
2026-05-07 14:34 41.47002 27.45953 15014 ft 372 kts 121°
2026-05-07 14:34 41.45721 27.48984 13688 ft 376 kts 118°
2026-05-07 14:34 41.44423 27.51893 12970 ft 357 kts 126°
2026-05-07 14:34 41.42952 27.54484 12370 ft 342 kts 129°
2026-05-07 14:35 41.41509 27.56880 12098 ft 336 kts 129°
2026-05-07 14:35 41.40032 27.59381 11904 ft 349 kts 128°
2026-05-07 14:35 41.38561 27.61959 11666 ft 349 kts 127°
2026-05-07 14:35 41.37124 27.64551 11418 ft 347 kts 127°
2026-05-07 14:36 41.35697 27.67180 11194 ft 356 kts 126°
2026-05-07 14:36 41.34245 27.69889 10967 ft 360 kts 126°
2026-05-07 14:36 41.32799 27.72608 10730 ft 360 kts 126°
2026-05-07 14:36 41.31370 27.75306 10486 ft 361 kts 126°
2026-05-07 14:37 41.29912 27.78060 10244 ft 360 kts 126°
2026-05-07 14:37 41.26974 27.83612 9799 ft 377 kts 126°
2026-05-07 14:37 41.25475 27.86482 9535 ft 379 kts 123°
2026-05-07 14:38 41.24230 27.89515 9284 ft 379 kts 114°
2026-05-07 14:38 41.23287 27.92756 9026 ft 377 kts 110°
2026-05-07 14:38 41.22366 27.96011 8787 ft 376 kts 111°
2026-05-07 14:38 41.21436 27.99249 8547 ft 375 kts 111°
2026-05-07 14:39 41.20503 28.02476 8289 ft 374 kts 111°
2026-05-07 14:39 41.19569 28.05694 8041 ft 373 kts 111°
2026-05-07 14:39 41.18632 28.08899 7797 ft 372 kts 111°
2026-05-07 14:39 41.17694 28.12100 7541 ft 372 kts 111°
2026-05-07 14:40 41.16769 28.15256 7282 ft 371 kts 111°
2026-05-07 14:40 41.15835 28.18439 7039 ft 370 kts 111°
2026-05-07 14:40 41.14903 28.21610 6807 ft 369 kts 111°
2026-05-07 14:40 41.13972 28.24774 6566 ft 367 kts 111°
2026-05-07 14:41 41.13046 28.27920 6307 ft 366 kts 111°
2026-05-07 14:41 41.12119 28.31063 6047 ft 365 kts 111°
2026-05-07 14:41 41.11197 28.34189 5809 ft 364 kts 112°
2026-05-07 14:41 41.10279 28.37292 5545 ft 362 kts 112°
2026-05-07 14:42 41.09366 28.40380 5302 ft 355 kts 112°
2026-05-07 14:42 41.08475 28.43388 5037 ft 345 kts 112°
2026-05-07 14:42 41.07609 28.46303 4794 ft 336 kts 112°
2026-05-07 14:42 41.06764 28.49149 4525 ft 327 kts 112°
2026-05-07 14:43 41.05974 28.51812 4213 ft 302 kts 112°
2026-05-07 14:43 41.05250 28.54251 4036 ft 274 kts 112°
2026-05-07 14:43 41.04701 28.56102 3962 ft 249 kts 112°
2026-05-07 14:43 41.04097 28.58126 4006 ft 230 kts 112°
2026-05-07 14:44 41.03519 28.60080 4026 ft 221 kts 109°
2026-05-07 14:44 41.03004 28.61925 3959 ft 208 kts 126°
2026-05-07 14:44 41.01918 28.63113 3999 ft 203 kts 164°
2026-05-07 14:44 41.00559 28.63447 4006 ft 198 kts 177°
2026-05-07 14:45 40.99181 28.63602 3978 ft 199 kts 184°
2026-05-07 14:45 40.97799 28.63583 4002 ft 199 kts 185°
2026-05-07 14:45 40.96410 28.63546 3978 ft 198 kts 186°
2026-05-07 14:45 40.95085 28.63508 3973 ft 195 kts 186°
2026-05-07 14:46 40.93757 28.63466 3977 ft 192 kts 185°
2026-05-07 14:46 40.92422 28.63881 3976 ft 206 kts 147°
2026-05-07 14:46 40.91644 28.65432 3981 ft 209 kts 98°
2026-05-07 14:46 40.91889 28.67282 4004 ft 208 kts 57°
2026-05-07 14:47 40.92858 28.68662 3998 ft 204 kts 30°
2026-05-07 14:47 40.94129 28.69389 4000 ft 197 kts 10°
2026-05-07 14:47 40.95464 28.69816 3986 ft 199 kts
2026-05-07 14:47 40.96812 28.70231 3983 ft 198 kts
2026-05-07 14:48 40.98191 28.70659 4023 ft 210 kts
2026-05-07 14:48 40.99612 28.71105 3983 ft 214 kts
2026-05-07 14:48 41.01064 28.71337 3989 ft 209 kts 355°
2026-05-07 14:48 41.02478 28.71274 3974 ft 199 kts 353°
2026-05-07 14:49 41.03828 28.71213 3966 ft 191 kts 354°
2026-05-07 14:49 41.05137 28.71172 4011 ft 189 kts 354°
2026-05-07 14:49 41.06469 28.71138 3997 ft 191 kts 354°
2026-05-07 14:49 41.07783 28.71111 3937 ft 194 kts 354°
2026-05-07 14:50 41.09143 28.71083 3669 ft 194 kts 354°
2026-05-07 14:50 41.10465 28.71060 3415 ft 188 kts 354°
2026-05-07 14:50 41.11760 28.71034 3182 ft 186 kts 354°
2026-05-07 14:50 41.13084 28.71004 2944 ft 189 kts 355°
2026-05-07 14:51 41.14355 28.70983 2710 ft 178 kts 355°
2026-05-07 14:51 41.15536 28.70960 2454 ft 160 kts 355°
2026-05-07 14:51 41.16614 28.70935 2275 ft 155 kts 355°
2026-05-07 14:51 41.17689 28.70915 2058 ft 155 kts 356°
2026-05-07 14:52 41.18707 28.70897 1870 ft 151 kts 356°
2026-05-07 14:52 41.19763 28.70876 1679 ft 153 kts 356°
2026-05-07 14:52 41.20823 28.70855 1472 ft 153 kts 356°
2026-05-07 14:52 41.21893 28.70832 1285 ft 155 kts 356°
2026-05-07 14:53 41.22958 28.70818 1066 ft 151 kts 358°
2026-05-07 14:53 41.23980 28.70782 817 ft 145 kts 360°
2026-05-07 14:53 41.24977 28.70751 666 ft 146 kts
2026-05-07 14:53 41.25982 28.70744 470 ft 143 kts
2026-05-07 14:54 41.26974 28.70725 356 ft 141 kts
2026-05-07 14:54 41.27870 28.70711 304 ft 110 kts 359°
2026-05-07 14:54 41.28423 28.70704 278 ft 63 kts
2026-05-07 14:54 41.28806 28.70925 264 ft 58 kts 30°
2026-05-07 14:55 41.28994 28.71063 261 ft 11 kts 27°
2026-05-07 14:55 41.29012 28.71148 261 ft 11 kts 136°
2026-05-07 14:55 41.28936 28.71167 264 ft 11 kts 179°
2026-05-07 14:55 41.28856 28.71169 267 ft 11 kts 179°
2026-05-07 14:56 41.28777 28.71170 270 ft 11 kts 179°
2026-05-07 14:56 41.28698 28.71172 273 ft 11 kts 179°
2026-05-07 14:56 41.28620 28.71174 276 ft 11 kts 179°
2026-05-07 14:56 41.28507 28.71177 281 ft 24 kts 179°
2026-05-07 14:57 41.28295 28.71182 288 ft 31 kts 178°
2026-05-07 14:57 41.28085 28.71189 300 ft 30 kts 179°
2026-05-07 14:57 41.27878 28.71190 306 ft 30 kts 180°
2026-05-07 14:57 41.27679 28.71193 310 ft 17 kts 173°
2026-05-07 14:58 41.27634 28.71293 309 ft 14 kts 86°
2026-05-07 14:58 41.27635 28.71360 309 ft 1 kts 89°
2026-05-07 14:58 41.27636 28.71365 309 ft 0 kts 89°